TimeGMT,TemperatureF,Dew PointF,Humidity,Sea Level PressureIn,VisibilityMPH,Wind Direction,Wind SpeedMPH,Gust SpeedMPH,PrecipitationIn,Events,Conditions,WindDirDegrees,DateUTC
12:20 AM,30.2,28.4,93,29.98,5.0,East,3.5,-,N/A,,Unknown,90,2012-11-19 00:20:00
12:50 AM,30.2,28.4,93,29.98,5.6,Calm,Calm,-,N/A,,Partly Cloudy,0,2012-11-19 00:50:00
1:20 AM,30.2,28.4,93,29.95,6.2,Calm,Calm,-,N/A,,Partly Cloudy,0,2012-11-19 01:20:00
1:50 AM,30.2,28.4,93,29.95,5.6,NE,2.3,-,N/A,,Partly Cloudy,40,2012-11-19 01:50:00
2:20 AM,30.2,28.4,93,29.95,6.2,ENE,2.3,-,N/A,,Partly Cloudy,70,2012-11-19 02:20:00
2:50 AM,30.2,28.4,93,29.92,6.2,Calm,Calm,-,N/A,,Partly Cloudy,0,2012-11-19 02:50:00
3:20 AM,30.2,28.4,93,29.92,6.2,ENE,4.6,-,N/A,,Scattered Clouds,70,2012-11-19 03:20:00
3:50 AM,30.2,28.4,93,29.92,6.2,ENE,2.3,-,N/A,,Mostly Cloudy,70,2012-11-19 03:50:00
4:20 AM,32.0,30.2,93,29.92,6.2,ENE,3.5,-,N/A,,Mostly Cloudy,70,2012-11-19 04:20:00
4:50 AM,35.6,35.6,100,29.89,6.2,Variable,2.3,-,N/A,,Mostly Cloudy,0,2012-11-19 04:50:00
5:20 AM,42.8,39.2,87,29.89,6.2,SSE,5.8,-,N/A,,Mostly Cloudy,150,2012-11-19 05:20:00
5:50 AM,42.8,39.2,87,29.89,6.2,SSE,3.5,-,N/A,,Mostly Cloudy,150,2012-11-19 05:50:00
6:20 AM,42.8,39.2,87,29.89,6.2,Variable,3.5,-,N/A,,Mostly Cloudy,0,2012-11-19 06:20:00
6:50 AM,44.6,41.0,87,29.89,6.2,SSE,5.8,-,N/A,,Mostly Cloudy,160,2012-11-19 06:50:00
7:20 AM,44.6,41.0,87,29.86,6.2,SSE,4.6,-,N/A,,Mostly Cloudy,160,2012-11-19 07:20:00
7:50 AM,46.4,41.0,81,29.86,6.2,SE,5.8,-,N/A,,Mostly Cloudy,140,2012-11-19 07:50:00
8:20 AM,48.2,41.0,76,29.86,6.2,South,6.9,-,N/A,,Mostly Cloudy,170,2012-11-19 08:20:00
8:50 AM,48.2,42.8,82,29.86,6.2,South,8.1,-,N/A,,Mostly Cloudy,170,2012-11-19 08:50:00
9:20 AM,50.0,42.8,76,29.86,6.2,South,6.9,-,N/A,,Mostly Cloudy,180,2012-11-19 09:20:00
9:50 AM,50.0,42.8,76,29.86,6.2,SSW,10.4,-,N/A,,Mostly Cloudy,200,2012-11-19 09:50:00
10:20 AM,50.0,42.8,76,29.86,6.2,SSW,10.4,-,N/A,,Scattered Clouds,200,2012-11-19 10:20:00
10:50 AM,51.8,42.8,71,29.86,6.2,SSW,9.2,-,N/A,,Mostly Cloudy,200,2012-11-19 10:50:00
11:20 AM,51.8,41.0,67,29.86,6.2,SSW,12.7,-,N/A,,Scattered Clouds,200,2012-11-19 11:20:00
11:50 AM,50.0,41.0,71,29.83,6.2,SSW,16.1,-,N/A,,Scattered Clouds,200,2012-11-19 11:50:00
12:20 PM,50.0,41.0,71,29.83,6.2,SSW,12.7,-,N/A,,Mostly Cloudy,200,2012-11-19 12:20:00
12:50 PM,50.0,41.0,71,29.83,6.2,SSW,13.8,-,N/A,,Mostly Cloudy,200,2012-11-19 12:50:00
1:20 PM,50.0,41.0,71,29.83,6.2,South,13.8,-,N/A,,Mostly Cloudy,190,2012-11-19 13:20:00
1:50 PM,50.0,42.8,76,29.83,6.2,South,12.7,-,N/A,,Mostly Cloudy,190,2012-11-19 13:50:00
2:20 PM,50.0,42.8,76,29.83,6.2,SSW,12.7,-,N/A,,Mostly Cloudy,200,2012-11-19 14:20:00
2:50 PM,50.0,42.8,76,29.83,6.2,SSW,11.5,-,N/A,,Scattered Clouds,200,2012-11-19 14:50:00
3:20 PM,50.0,42.8,76,29.83,6.2,SSW,11.5,-,N/A,,Partly Cloudy,200,2012-11-19 15:20:00
3:50 PM,50.0,42.8,76,29.83,6.2,South,11.5,-,N/A,,Partly Cloudy,190,2012-11-19 15:50:00
4:20 PM,50.0,42.8,76,29.83,6.2,South,10.4,-,N/A,,Partly Cloudy,190,2012-11-19 16:20:00
4:50 PM,50.0,44.6,82,29.83,6.2,South,11.5,-,N/A,,Mostly Cloudy,190,2012-11-19 16:50:00
5:20 PM,50.0,44.6,82,29.83,6.2,SSW,12.7,-,N/A,,Mostly Cloudy,200,2012-11-19 17:20:00
5:50 PM,51.8,44.6,76,29.83,6.2,SSW,11.5,-,N/A,,Mostly Cloudy,200,2012-11-19 17:50:00
6:20 PM,51.8,44.6,76,29.83,6.2,South,12.7,-,N/A,,Mostly Cloudy,190,2012-11-19 18:20:00
6:50 PM,51.8,44.6,76,29.83,6.2,SSW,11.5,-,N/A,,Mostly Cloudy,200,2012-11-19 18:50:00
7:20 PM,51.8,46.4,82,29.83,6.2,SSW,11.5,-,N/A,,Mostly Cloudy,200,2012-11-19 19:20:00
7:50 PM,51.8,46.4,82,29.83,3.1,SSW,10.4,-,N/A,Rain,Light Rain,200,2012-11-19 19:50:00
8:20 PM,50.0,48.2,94,29.83,3.1,SSW,10.4,-,N/A,,Drizzle,200,2012-11-19 20:20:00
8:50 PM,50.0,48.2,94,29.83,3.1,South,8.1,-,N/A,,Drizzle,190,2012-11-19 20:50:00
9:20 PM,50.0,48.2,94,29.83,3.7,South,9.2,-,N/A,Rain,Light Rain,190,2012-11-19 21:20:00
9:50 PM,50.0,48.2,94,29.83,4.3,South,10.4,-,N/A,Rain,Light Rain,180,2012-11-19 21:50:00
10:20 PM,50.0,48.2,94,29.83,3.1,South,5.8,-,N/A,,Light Drizzle,190,2012-11-19 22:20:00
10:50 PM,50.0,48.2,94,29.83,2.5,South,8.1,-,N/A,Rain,Rain,180,2012-11-19 22:50:00
11:20 PM,51.8,48.2,88,29.83,2.5,South,9.2,-,N/A,,Drizzle,190,2012-11-19 23:20:00
11:50 PM,51.8,48.2,88,29.83,2.5,South,9.2,-,N/A,Rain,Drizzle,180,2012-11-19 23:50:00